Spring Break 300 - 30 miles

Station: Railroad Tracks - T Race

Distance: 30.055 Miles    

Release: 05-Apr-2021 08:15

Weather Release:    Arrival:

Wind at Release:     Wind at Arrival:

Temp at Release: °    Temp at Arrival: °

Lofts: 121

Birds: 434

Clocked: 385

Good Luck to Everyone!
Drops Pos Breeder Pigeon Name Color Sex Ent Arrival Speed To Win Elg PdAOC
1 3 Stars & A Sun - TX 0437-AU20-STAR BBWF H 1 09:00:08.90 1171.622 00:00:00 Yes
2 Balikbayan Express - WA 66639-AU20-ARPU BLK H 1 09:00:36.20 1159.933 00:00:27 Yes
3 Nick & Sons - WA 58315-AU20-ARPU BBSP H 1 09:00:48.50 1154.742 00:00:40 Yes
4 Patrick Kwan - CA 2069-AU20-KWAN DC H 1 09:01:35.70 1135.246 00:01:27 Yes
5 Mullins Family Loft - CA 24600-AU20-ARPU BB H 1 09:01:43.70 1132.007 00:01:35 Yes
6 Twisted Mitten Loft - MI 1963-AU20-ARPU BB H 1 09:01:49.20 1129.791 00:01:40 Yes
7 A-Lin Loft - MA 13339-AU20-FOYS DC H 1 09:01:50.70 1129.188 00:01:42 Yes
8 Chee Racing Pigeon - MN 32820-AU20-FOYS Vegeta BB C 1 09:01:51.50 1128.866 00:01:43 Yes
9 Lawrence Cummins - UT 0288-AU20-DWI DC H 1 09:01:52.80 1128.345 00:01:44 Yes
10 Sherwood Loft - UT 2206-IF20-FOYS BB H 1 09:01:56.00 1127.063 00:01:47 Yes
11 Desert Rose Lofts - NV 0309-AU20-DRL BB H 1 09:01:56.30 1126.942 00:01:47 Yes
12 FAmPFA - IL 0056-AU20-RGAB BBSP H 1 09:01:57.80 1126.343 00:01:49 Yes
13 Blake’s Birdies - UT 0369-AU20-BB BC H 1 09:01:58.60 1126.023 00:01:50 Yes
14 Allen Family Racing - NC 16729-AU20-ARPU BB H 1 09:02:00.70 1125.185 00:01:52 Yes
15 Deko - UT 2887-AU20-AA GRIZ C 1 09:02:01.40 1124.905 00:01:52 Yes
16 Eastern Pearl Loft - VA 0849-AU20-EPL 🈚️量849=090x181 BB H 1 09:02:01.70 1124.786 00:01:53 Yes
17 Belt Boys - UT 0205-AU20-BELT INDB H 1 09:02:02.70 1124.387 00:01:54 Yes
18 Nebo Loft - UT 0377-AU20-NEBO RC H 1 09:02:03.00 1124.268 00:01:54 Yes
19 Igor & Sons Loft - OR 0296-AU20-OTC BC H 1 09:02:03.70 1123.989 00:01:55 Yes
20 Bruno - UT 2796-AU20-ARP BB H 1 09:02:03.80 1123.949 00:01:55 Yes
21 Send An Ace Loft/Bobby Pagdilao - WA 0384-AU20-GSC BB H 1 09:02:04.10 1123.830 00:01:55 Yes
22 Cliff Jayben - NV 43415-AU20-AA BB H 1 09:02:06.30 1122.955 00:01:57 Yes
23 Paul Meyer - WA 0806-AU20-TCW MELY H 1 09:02:06.70 1122.796 00:01:58 Yes
24 Lone Peak - UT 0270-AU20-UVI BB H 1 09:02:07.40 1122.518 00:01:58 Yes
24 Liqing Ni Loft - NY 0044-AU20-YANG 🦄🦄🦄 BB H 1 09:02:07.40 1122.518 00:01:58 Yes
26 Cliff Jayben - NV 43401-AU20-AA BC H 2 09:02:08.40 1122.121 00:01:59 Yes
27 Border Clan Scott - UT 0334-AU20-REBE BB H 1 09:02:08.70 1122.002 00:02:00 Yes
28 Pursifull Loft - LA 0128-AU20-BRFT BB H 1 09:02:09.50 1121.685 00:02:01 Yes
28 Slick Hills Loft - UT 51303-AU20-ARPU BB H 1 09:02:09.50 1121.685 00:02:01 Yes
30 A-Lin Loft - MA 164906-AU20-CHN DC H 2 09:02:09.80 1121.566 00:02:01 Yes
31 Lone Peak - UT 0271-AU20-UVI BB H 2 09:02:12.80 1120.378 00:02:04 Yes
32 Xfactord - OK 4323-AU20-ARPU Flex RED H 1 09:02:13.50 1120.102 00:02:05 Yes
33 Big Sky Syndicate - MT 4471-AU20-JEDD BB H 1 09:02:13.90 1119.944 00:02:05 Yes
34 Myers Flyers Loft - WA 0504-AU20-YAK Tough Enough RBAR H 1 09:02:14.90 1119.548 00:02:06 Yes
34 Border Clan Scott - UT 0332-AU20-REBE BB H 2 09:02:14.90 1119.548 00:02:06 Yes
36 Wartick Family Loft - KS 0379-AU20-AC BB H 1 09:02:15.80 1119.193 00:02:07 Yes
36 Robinson/ Lawrence - UT 2449-AU20-WFA BB H 1 09:02:15.80 1119.193 00:02:07 Yes
38 Igor & Sons Loft - OR 0186-AU20-OTC BBSP H 2 09:02:16.70 1118.838 00:02:08 Yes
39 Twisted Mitten Loft - MI 1943-AU20-ARPU DC H 2 09:02:18.40 1118.168 00:02:09 Yes
40 Apple Cup - WA 0836-AU20-YAK BB H 1 09:02:19.20 1117.853 00:02:10 Yes
41 Sherwood Loft - UT 0492-AU20-UCA DC H 2 09:02:19.90 1117.577 00:02:11 Yes
41 Tony Sorrentino - NJ 0849-AU20-ATS BC H 1 09:02:19.90 1117.577 00:02:11 Yes
43 A-Lin Loft - MA 13338-AU20-FOYS BC H 3 09:02:21.00 1117.145 00:02:12 Yes
44 Transilvania Loft - NV 0262-AU20-CFL BB H 1 09:02:21.70 1116.869 00:02:13 Yes
45 Plymouth Peak Pro Challenge - UT 82291-AU20-DNAL BB H 1 09:02:22.00 1116.752 00:02:13 Yes
46 Larry Jensen - IA 1425-AU20-SCIA WG H 1 09:02:23.40 1116.202 00:02:14 Yes
47 Bruno - UT 2789-AU20-ARP DCWF H 2 09:02:24.40 1115.809 00:02:15 Yes
48 Desert Rose Lofts - NV 0399-AU20-DRL LBC H 2 09:02:28.70 1114.125 00:02:20 Yes
49 Zhengloft - MA 0106-IF20-ZHEN BB H 1 09:02:30.30 1113.500 00:02:21 Yes
50 Crazy Als Lofts - CO 5867-AU20-CRAZ BB H 1 09:02:30.60 1113.382 00:02:22 Yes
51 Rory Smith - UT 0437-AU20-CDR BBTC H 1 09:02:31.40 1113.070 00:02:22 Yes
51 Dong Family Loft - NY 0873-AU20-DMI BB H 1 09:02:31.40 1113.070 00:02:22 Yes
53 Balikbayan Express - WA 66638-AU20-ARPU BB H 2 09:02:31.70 1112.953 00:02:23 Yes
54 G M R Racing - UT 21708-AU20-AA BBWF H 1 09:02:32.70 1112.563 00:02:24 Yes
55 Alca Loft - IL 3448-AU20-ALCA Brave Strangers DC H 1 09:02:34.90 1111.705 00:02:26 Yes
56 Marauder Loft - CO 10818-AU20-JEDD BC H 1 09:04:42.90 1064.001 00:04:34 Yes
57 Mullins Family Loft - CA 23088-AU20-ARPU BB H 2 09:04:47.90 1062.220 00:04:39 Yes
58 Liqing Ni Loft - NY 0050-AU20-YANG 🦄🦄🦄 BC H 2 09:04:50.40 1061.332 00:04:41 Yes
59 Desert Rose Lofts - NV 0302-AU20-DRL DCWF H 3 09:04:52.90 1060.446 00:04:44 Yes
60 Crazy Als Lofts - CO 5868-AU20-CRAZ DC H 2 09:04:54.90 1059.738 00:04:46 Yes
61 New Orleans Boys 2 - LA 20292-AU20-MET GRIZ H 1 09:04:58.00 1058.642 00:04:49 Yes
62 Slick Hills Loft - UT 51331-AU20-ARPU BBWF H 2 09:05:00.60 1057.724 00:04:52 Yes
63 Unassigned-Oneloft - OR 66535-AU20-ARPU BCWF 0 1 09:05:05.00 1056.176 00:04:56 Yes
63 Stelling Loft - NM 0085-AU20-JHS BB H 1 09:05:05.00 1056.176 00:04:56 Yes
65 Mullins Family Loft - CA 24069-AU20-ARPU BB H 3 09:05:08.90 1054.807 00:05:00 Yes
66 Tim Rizek - NM 20101-AU20-NMRP BBWF H 1 09:05:10.80 1054.141 00:05:02 Yes
67 Sam Haslem - UT 0177-AU20-SAM BB H 1 09:05:18.90 1051.313 00:05:10 Yes
68 Rory Smith - UT 0444-AU20-CDR BB H 2 09:05:19.70 1051.034 00:05:11 Yes
69 Twisted Mitten Loft - MI 1911-AU20-ARPU BB H 3 09:05:23.80 1049.609 00:05:15 Yes
70 Pursifull Loft - LA 3903-AU20-TEX BB H 2 09:05:25.20 1049.123 00:05:16 Yes
71 Golden Pigeon Boys - CA 49563-AU20-JEDD MD+NBB BB H 1 09:05:30.30 1047.358 00:05:21 Yes
72 Mullins Family Loft - CA 24152-AU20-ARPU BBWF H 4 09:05:33.50 1046.253 00:05:25 Yes
73 New Orleans Boys 2 - LA 20291-AU20-MET GRIZ H 2 09:05:36.50 1045.219 00:05:28 Yes
74 Rodriguez Loft - TX 5477-AU20-JEDD BF-55/BLAD BB H 1 09:05:37.30 1044.944 00:05:28 Yes
75 Cliff Jayben - NV 43411-AU20-AA BB H 3 09:05:38.10 1044.669 00:05:29 Yes
76 Balikbayan Express - WA 66538-AU20-ARPU BB H 3 09:05:39.50 1044.188 00:05:31 Yes
77 Peery Loft - UT 0051-AU20-UCA BB H 1 09:05:42.30 1043.227 00:05:33 Yes
77 Sam Haslem - UT 0175-AU20-SAM MLY H 2 09:05:42.30 1043.227 00:05:33 Yes
79 Bruno - UT 2788-AU20-ARP BC H 3 09:05:49.40 1040.798 00:05:40 Yes
80 G M R Racing - UT 21748-AU20-AA RDWF H 2 09:05:51.20 1040.184 00:05:42 Yes
81 Rodriguez Loft - TX 5475-AU20-JEDD 60-AIDH BBWF H 2 09:05:53.30 1039.468 00:05:44 Yes
82 Cliff Jayben - NV 43414-AU20-AA BB H 4 09:05:53.70 1039.332 00:05:45 Yes
83 Slick Hills Loft - UT 51327-AU20-ARPU BC H 3 09:05:54.40 1039.094 00:05:45 Yes
84 Lone Peak - UT 0267-AU20-UVI BB H 3 09:05:56.70 1038.312 00:05:48 Yes
85 Gillins/Raddon - UT 21735-AU20-AA RED C 1 09:05:57.60 1038.006 00:05:49 Yes
86 Richard Gale - UT 0323-AU20-CDR Red General RDSP H 1 09:06:02.50 1036.345 00:05:54 Yes
86 Zhengloft - MA 0114-IF20-ZHEN RED H 2 09:06:02.50 1036.345 00:05:54 Yes
88 Dekeratry Loft - TX 2613-AU20-HOT BBSP H 1 09:06:04.00 1035.838 00:05:55 Yes
89 Rebel Wings - UT 0394-AU20-REBE BC H 1 09:06:04.80 1035.568 00:05:56 Yes
90 Power Stroke Loft - MN 0655-AU20-PS BB H 1 09:06:06.50 1034.994 00:05:58 Yes
91 Evolution One Loft - UT 47242-AU20-ARPU BB H 1 09:06:07.30 1034.724 00:05:58 Yes
92 Robinson/ Lawrence - UT 2441-AU20-WFA BBWF H 2 09:06:08.40 1034.353 00:05:59 Yes
93 John V. Partridge - CA 2053-AU20-PASO Corpus SLAT H 1 09:06:09.80 1033.881 00:06:01 Yes
94 Gomez Loft - CA 2663-AU20-CHP BC H 1 09:06:12.70 1032.905 00:06:04 Yes
95 Nebo Loft - UT 0642-AU20-NEBO Mr. Manna x 5158 BC H 2 09:06:39.70 1023.908 00:06:31 Yes
96 Desert Rose Lofts - NV 0388-AU20-DRL BB H 4 09:06:42.30 1023.050 00:06:33 Yes
97 Boyet And Petes Loft - CA 37023-AU20-JEDD BC H 1 09:06:43.60 1022.621 00:06:35 Yes
98 Dan, Sheri & The Garfield Boys - UT 0931-AU20-CDR 7 Summers 8624 SLTW H 1 09:06:45.20 1022.095 00:06:36 Yes
99 Chee Racing Pigeon - MN 32817-AU20-FOYS Little Super Ludo DCSP H 2 09:06:46.60 1021.634 00:06:38 Yes
100 Marian Mucha - IL 3451-AU20-ALCA DCWF H 1 09:06:48.30 1021.075 00:06:39 Yes

There are 385 bird records

Note: These Race Results are unofficial and subject to change until verified by the Race Committee and declared final.